York, NE

8:48 AM CST on February 06, 2016 (GMT -0600)
York Municipal

Weather History for KJYR - October, 2013

Change the Weather History Date:

Tuesday, October 15, 2013

  Actual Average Record
Temperature  
Mean Temperature 46 °F -  
Max Temperature 50 °F 65 °F 89 °F (1958)
Min Temperature 41 °F 40 °F 26 °F (1952)
Degree Days  
Heating Degree Days 20    
Moisture  
Dew Point 37 °F    
Average Humidity 74    
Maximum Humidity 82    
Minimum Humidity 66    
Precipitation  
Precipitation 0.00 in - - ()
Sea Level Pressure  
Sea Level Pressure 30.01 in    
Wind  
Wind Speed 21 mph (NW)    
Max Wind Speed 29 mph    
Max Gust Speed 37 mph    
Visibility 10 miles    
Events      
Averages and records for this station are not official NWS values.
T = Trace of Precipitation, MM = Missing Value Source: NWS Daily Summary

Daily Weather History Graph

Daily Weather History Graph

Search for Another Location

Airport or City:

Trip Planner

Search our weather history database for the weather conditions in past years. The results will help you decide how hot, cold, wet, or windy it might be!

Date:

Astronomy

Oct. 15, 2013 Rise Set
Actual Time 7:42 AM CDT 6:49 PM CDT
Civil Twilight 7:14 AM CDT 7:17 PM CDT
Nautical Twilight 6:42 AM CDT 7:49 PM CDT
Astronomical Twilight 6:10 AM CDT 8:20 PM CDT
Moon 4:56 PM CDT (10/15) 4:04 AM CDT (10/15)
Length of Visible Light 12h 02m
Length of Day
11h 07m
Waxing Gibbous, 88% of the Moon is Illuminated
Oct 15
Waxing Gibbous
Oct 18
Full
Oct 26
Last Quarter
Nov 3
New
Nov 9
First Quarter

Hourly Weather History & Observations

Time (CDT) Temp. Windchill Dew Point Humidity Pressure Visibility Wind Dir Wind Speed Gust Speed Precip Events Conditions
12:15 AM 50.0 °F - 44.6 °F 82% 29.86 in 10.0 mi WNW 21.9 mph 28.8 mph N/A   Overcast
12:35 AM 48.2 °F - 42.8 °F 82% 29.86 in 10.0 mi WNW 23.0 mph 28.8 mph N/A   Overcast
12:55 AM 48.2 °F - 41.0 °F 76% 29.87 in 10.0 mi WNW 18.4 mph 31.1 mph N/A   Overcast
1:15 AM 48.2 °F - 41.0 °F 76% 29.87 in 10.0 mi NW 18.4 mph 24.2 mph N/A   Overcast
1:35 AM 46.4 °F 37.9 °F 39.2 °F 76% 29.89 in 10.0 mi NW 25.3 mph 32.2 mph N/A   Overcast
1:55 AM 46.4 °F 37.5 °F 39.2 °F 76% 29.90 in 10.0 mi WNW 27.6 mph 32.2 mph N/A   Overcast
2:15 AM 46.4 °F 38.7 °F 39.2 °F 76% 29.90 in 10.0 mi WNW 20.7 mph 27.6 mph N/A   Overcast
2:35 AM 46.4 °F 39.0 °F 39.2 °F 76% 29.91 in 10.0 mi WNW 19.6 mph 27.6 mph N/A   Overcast
2:55 AM 46.4 °F 39.8 °F 39.2 °F 76% 29.91 in 10.0 mi WNW 16.1 mph 25.3 mph N/A   Overcast
3:15 AM 46.4 °F 39.8 °F 39.2 °F 76% 29.91 in 10.0 mi WNW 16.1 mph 25.3 mph N/A   Overcast
3:35 AM 46.4 °F 38.7 °F 39.2 °F 76% 29.92 in 10.0 mi WNW 20.7 mph 25.3 mph N/A   Overcast
3:55 AM 46.4 °F 39.2 °F 37.4 °F 71% 29.92 in 10.0 mi WNW 18.4 mph 29.9 mph N/A   Overcast
4:15 AM 46.4 °F 38.7 °F 37.4 °F 71% 29.92 in 10.0 mi WNW 20.7 mph 31.1 mph N/A   Overcast
4:35 AM 44.6 °F 36.4 °F 37.4 °F 76% 29.93 in 10.0 mi WNW 20.7 mph 29.9 mph N/A   Overcast
4:55 AM 44.6 °F 36.4 °F 37.4 °F 76% 29.93 in 10.0 mi WNW 20.7 mph 29.9 mph N/A   Overcast
5:15 AM 44.6 °F 35.5 °F 37.4 °F 76% 29.92 in 10.0 mi NW 25.3 mph 36.8 mph N/A   Overcast
5:35 AM 44.6 °F 35.7 °F 35.6 °F 71% 29.93 in 10.0 mi WNW 24.2 mph 29.9 mph N/A   Overcast
5:55 AM 44.6 °F 37.4 °F 35.6 °F 71% 29.93 in 10.0 mi WNW 16.1 mph 24.2 mph N/A   Overcast
6:15 AM 42.8 °F 34.8 °F 35.6 °F 76% 29.94 in 10.0 mi WNW 17.3 mph 27.6 mph N/A   Mostly Cloudy
6:35 AM 41.0 °F 31.6 °F 35.6 °F 81% 29.95 in 10.0 mi WNW 20.7 mph 26.5 mph N/A   Scattered Clouds
6:55 AM 41.0 °F 34.3 °F 35.6 °F 81% 29.96 in 10.0 mi WNW 11.5 mph - N/A   Mostly Cloudy
7:15 AM 41.0 °F 32.8 °F 35.6 °F 81% 29.96 in 10.0 mi WNW 16.1 mph - N/A   Overcast
7:35 AM 41.0 °F 31.4 °F 35.6 °F 81% 29.97 in 10.0 mi WNW 21.9 mph 27.6 mph N/A   Overcast
7:55 AM 41.0 °F 32.8 °F 33.8 °F 76% 29.97 in 10.0 mi NW 16.1 mph 23.0 mph N/A   Scattered Clouds
8:15 AM 41.0 °F 31.6 °F 33.8 °F 76% 29.98 in 10.0 mi WNW 20.7 mph 24.2 mph N/A   Clear
8:35 AM 41.0 °F 32.8 °F 35.6 °F 81% 29.98 in 10.0 mi WNW 16.1 mph 23.0 mph N/A   Scattered Clouds
8:55 AM 41.0 °F 32.2 °F 35.6 °F 81% 29.99 in 10.0 mi WNW 18.4 mph 25.3 mph N/A   Overcast
9:15 AM 41.0 °F 32.5 °F 35.6 °F 81% 29.99 in 10.0 mi WNW 17.3 mph 26.5 mph N/A   Overcast
9:35 AM 42.8 °F 32.5 °F 35.6 °F 76% 29.99 in 10.0 mi NW 28.8 mph 36.8 mph N/A   Overcast
9:55 AM 44.6 °F 35.5 °F 35.6 °F 71% 30.00 in 10.0 mi NW 25.3 mph 34.5 mph N/A   Mostly Cloudy
10:15 AM 44.6 °F 35.5 °F 35.6 °F 71% 30.01 in 10.0 mi NW 25.3 mph 33.4 mph N/A   Overcast
10:35 AM 44.6 °F 35.5 °F 35.6 °F 71% 30.01 in 10.0 mi WNW 25.3 mph 34.5 mph N/A   Overcast
10:55 AM 46.4 °F 37.7 °F 35.6 °F 66% 30.02 in 10.0 mi WNW 26.5 mph 34.5 mph N/A   Overcast
11:15 AM 46.4 °F 38.7 °F 37.4 °F 71% 30.03 in 10.0 mi NW 20.7 mph 28.8 mph N/A   Overcast
11:35 AM 46.4 °F 37.9 °F 37.4 °F 71% 30.03 in 10.0 mi NW 25.3 mph 33.4 mph N/A   Overcast
11:55 AM 46.4 °F 37.9 °F 37.4 °F 71% 30.04 in 10.0 mi NW 25.3 mph 32.2 mph N/A   Overcast
12:15 PM 46.4 °F 38.1 °F 35.6 °F 66% 30.04 in 10.0 mi NW 24.2 mph 33.4 mph N/A   Overcast
12:35 PM 46.4 °F 38.5 °F 37.4 °F 71% 30.05 in 10.0 mi NW 21.9 mph 35.7 mph N/A   Overcast
12:55 PM 46.4 °F 37.9 °F 37.4 °F 71% 30.05 in 10.0 mi WNW 25.3 mph 31.1 mph N/A   Overcast
1:15 PM 46.4 °F 38.3 °F 37.4 °F 71% 30.05 in 10.0 mi NW 23.0 mph 29.9 mph N/A   Overcast
1:35 PM 48.2 °F - 37.4 °F 66% 30.04 in 10.0 mi NW 23.0 mph 29.9 mph N/A   Overcast
1:55 PM 48.2 °F - 37.4 °F 66% 30.04 in 10.0 mi NW 24.2 mph 31.1 mph N/A   Overcast
2:15 PM 48.2 °F - 37.4 °F 66% 30.03 in 10.0 mi NW 25.3 mph 33.4 mph N/A   Overcast
2:35 PM 48.2 °F - 37.4 °F 66% 30.03 in 10.0 mi NW 25.3 mph 32.2 mph N/A   Overcast
2:55 PM 48.2 °F - 37.4 °F 66% 30.04 in 10.0 mi NW 23.0 mph 31.1 mph N/A   Overcast
3:15 PM 48.2 °F - 37.4 °F 66% 30.04 in 10.0 mi NW 24.2 mph 28.8 mph N/A   Overcast
3:35 PM 48.2 °F - 37.4 °F 66% 30.04 in 10.0 mi NW 25.3 mph 31.1 mph N/A   Overcast
3:55 PM 48.2 °F - 37.4 °F 66% 30.05 in 10.0 mi NW 24.2 mph 32.2 mph N/A   Overcast
4:15 PM 48.2 °F - 37.4 °F 66% 30.05 in 10.0 mi NW 27.6 mph 32.2 mph N/A   Overcast
4:35 PM 46.4 °F 38.1 °F 37.4 °F 71% 30.06 in 10.0 mi NW 24.2 mph 33.4 mph N/A   Overcast
4:55 PM 46.4 °F 37.5 °F 37.4 °F 71% 30.05 in 10.0 mi NW 27.6 mph 31.1 mph N/A   Overcast
5:15 PM 46.4 °F 37.9 °F 37.4 °F 71% 30.06 in 10.0 mi NNW 25.3 mph 29.9 mph N/A   Overcast
5:35 PM 46.4 °F 39.2 °F 37.4 °F 71% 30.06 in 10.0 mi NW 18.4 mph 24.2 mph N/A   Overcast
5:55 PM 46.4 °F 38.5 °F 37.4 °F 71% 30.06 in 10.0 mi NW 21.9 mph 27.6 mph N/A   Overcast
6:15 PM 44.6 °F 36.4 °F 37.4 °F 76% 30.06 in 10.0 mi NW 20.7 mph 27.6 mph N/A   Overcast
6:35 PM 44.6 °F 36.4 °F 35.6 °F 71% 30.07 in 10.0 mi NW 20.7 mph 26.5 mph N/A   Overcast
6:55 PM 44.6 °F 36.9 °F 37.4 °F 76% 30.08 in 10.0 mi NW 18.4 mph - N/A   Overcast
7:15 PM 44.6 °F 37.8 °F 37.4 °F 76% 30.08 in 10.0 mi NW 15.0 mph 20.7 mph N/A   Overcast
7:55 PM 44.6 °F 37.4 °F 37.4 °F 76% 30.10 in 10.0 mi NW 16.1 mph 21.9 mph N/A   Overcast
8:15 PM 44.6 °F 38.1 °F 37.4 °F 76% 30.10 in 10.0 mi NW 13.8 mph - N/A   Overcast
8:35 PM 44.6 °F 37.4 °F 37.4 °F 76% 30.10 in 10.0 mi NW 16.1 mph 21.9 mph N/A   Overcast
8:55 PM 44.6 °F 38.1 °F 37.4 °F 76% 30.11 in 10.0 mi NW 13.8 mph 25.3 mph N/A   Overcast
9:15 PM 42.8 °F 34.8 °F 37.4 °F 81% 30.11 in 10.0 mi NNW 17.3 mph 23.0 mph N/A   Overcast
9:35 PM 42.8 °F 35.4 °F 37.4 °F 81% 30.12 in 10.0 mi NNW 15.0 mph 20.7 mph N/A   Overcast
9:55 PM 42.8 °F 35.4 °F 37.4 °F 81% 30.12 in 10.0 mi NW 15.0 mph 20.7 mph N/A   Overcast
10:15 PM 42.8 °F 35.8 °F 37.4 °F 81% 30.12 in 10.0 mi NW 13.8 mph - N/A   Overcast
10:35 PM 42.8 °F 35.1 °F 37.4 °F 81% 30.12 in 10.0 mi NW 16.1 mph 20.7 mph N/A   Overcast
10:55 PM 44.6 °F 38.4 °F 37.4 °F 76% 30.13 in 10.0 mi NW 12.7 mph - N/A   Overcast
11:15 PM 44.6 °F 38.1 °F 37.4 °F 76% 30.13 in 10.0 mi NW 13.8 mph 19.6 mph N/A   Overcast
11:35 PM 44.6 °F 38.4 °F 37.4 °F 76% 30.13 in 10.0 mi NW 12.7 mph - N/A   Overcast
11:55 PM 44.6 °F 38.8 °F 37.4 °F 76% 30.12 in 10.0 mi NW 11.5 mph - N/A   Overcast